Regional Weather Roundup
Issued by NWS

Home | Current Version | Previous Version | Text Only | Print | Product List | Glossary Off
Versions: 1 2 3 4 5 6 7 8 9 10 11 12 13 14 15 16 17 18 19 20 21 22 23 24 25 26 27 28 29 30 31 32 33 34 35 36 37 38 39 40 41 42 43 44 45 46 47 48 49 50

000
ASUS43 KLSX 171907
RWRMO

WEATHER SUMMARY FOR MISSOURI
NATIONAL WEATHER SERVICE SPRINGFIELD MO
200 PM CDT TUE OCT 17 2017

NOTE: "FAIR" INDICATES FEW OR NO CLOUDS BELOW 12,000 FEET WITH NO
       SIGNIFICANT WEATHER AND/OR OBSTRUCTIONS TO VISIBILITY.
       CURRENT SKY AND/OR WEATHER CONDITIONS ARE NOT AVAILABLE FOR
       CHILLICOTHE AND FARMINGTON.

MOZ001>031-035>038-043-044-053-054-172000-
...NORTHERN AND WESTERN MISSOURI...

CITY           SKY/WX    TMP DP  RH WIND       PRES   REMARKS
KANSAS CTY INT MOSUNNY   71  45  39 S20G25    30.12F
KANSAS C DTWN  SUNNY     72  45  37 S17       30.14F
LEE`S SUMMIT   SUNNY     69  45  41 S17       30.16F
ST JOSEPH      SUNNY     74  44  34 S14G20    30.10F
CHILLICOTHE      N/A     71  45  39 S14G21    30.15F
KIRKSVILLE     SUNNY     70  46  42 S12       30.17F

$$
MOZ066>068-077>081-088>096-101>105-172000-
...SOUTHWEST MISSOURI...

CITY           SKY/WX    TMP DP  RH WIND       PRES   REMARKS
SPRINGFIELD    SUNNY     68  41  37 S16G24    30.23F
JOPLIN         SUNNY     69  46  43 S10       30.22F
BRANSON        MOSUNNY   66  37  34 S8        30.27F

$$
MOZ032>034-039>042-045>050-055>058-069>072-172000-
...CENTRAL MISSOURI...

CITY           SKY/WX    TMP DP  RH WIND       PRES   REMARKS
COLUMBIA       SUNNY     69  45  41 S14       30.21F
JEFFERSON CITY SUNNY     69  41  36 SW9       30.21F
ROLLA          SUNNY     66  40  38 SW10      30.25F
SEDALIA        SUNNY     71  46  40 S16       30.20F
WHITEMAN AFB   SUNNY     69  46  43 SW14      30.14F
WARRENSBURG    SUNNY     68  43  40 S13G18    30.18F
OSAGE BEACH    SUNNY     69  44  40 S14       30.23F

$$
MOZ051-052-059>065-172000-
...EAST CENTRAL MISSOURI...

CITY           SKY/WX    TMP DP  RH WIND       PRES   REMARKS
ST LOUIS INTL  CLOUDY    70  40  33 SW12      30.25F
SPIRIT OF STL  MOSUNNY   68  41  37 S6        30.24F
ST CHARLES     MOSUNNY   66  40  38 S8        30.24F

$$
MOZ072>076-082>087-097>100-106>115-172000-
...SOUTH CENTRAL AND SOUTHEAST MISSOURI...

CITY           SKY/WX    TMP DP  RH WIND       PRES   REMARKS
CAPE GIRARDEAU SUNNY     65  40  39 S5        30.28F
FARMINGTON     MOSUNNY   65  39  38 S10       30.28F
POPLAR BLUFF   MOSUNNY   64  40  41 VRB3      30.28F
WEST PLAINS    SUNNY     66  33  29 S10       30.28F

$$



USA.gov is the U.S. government's official web portal to all federal, state and local government web resources and services.